Simultaneous Nadir Overpasses (SNOs) Predictions

Prediction of SNOs between AQUA and METOP-A Satellite Orbit:

Table of predicted SNOs for the next 14.0 days since TLE Epoch: 1/18/2020
Index Date (AQUA) Time (AQUA) Lat,Lon (AQUA) SZA (AQUA ) Date (METOP-A) Time (METOP-A) Lat,Lon (METOP-A) SZA (METOP-A ) Distance(km) Time Diff (sec)
1 01/19/2020 00:35:17 75.81, 160.44 96.57 01/19/2020 00:34:42 75.80, 160.43 96.57 1.42 35
2 01/19/2020 01:24:43 -75.83, -31.97 83.42 01/19/2020 01:25:23 -75.83, -32.12 83.41 4.03 40
3 01/21/2020 20:09:32 75.80,-133.10 95.97 01/21/2020 20:09:03 75.83,-133.10 96.01 3.32 29
4 01/21/2020 20:58:59 -75.86, 34.36 83.97 01/21/2020 20:59:44 -75.87, 34.35 83.97 1.04 45
5 01/24/2020 15:43:49 75.85, -66.80 95.38 01/24/2020 15:43:26 75.82, -66.78 95.36 3.41 23
6 01/24/2020 16:33:16 -75.90, 100.68 84.57 01/24/2020 16:34:06 -75.91, 100.83 84.58 4.02 50
7 01/27/2020 10:28:27 -75.31,-166.45 85.92 01/27/2020 10:27:21 -75.25,-169.48 85.77 85.71 66
8 01/27/2020 11:18:05 75.85, -0.38 94.70 01/27/2020 11:17:48 75.85, -0.32 94.70 1.52 17
9 01/27/2020 12:07:32 -75.90, 167.13 85.27 01/27/2020 12:08:29 -75.89, 167.14 85.28 0.42 57
10 01/30/2020 06:02:47 -75.56,-100.71 86.37 01/30/2020 06:01:37 -75.52,-102.31 86.29 44.65 70
11 01/30/2020 06:52:20 75.86, 66.04 93.97 01/30/2020 06:52:10 75.84, 65.99 93.95 2.86 10




NCC Satellite Simultaneous Nadir Overpasses (SNOs) Prediction Service
